Hourly Data Report for January 14, 2005

SHERBROOKE A
QUEBEC

45°26'00.000" N
71°41'00.000" W
241.40 m
7028124
71610
YSC

Download Data

Hourly Data (January 2005)
Hourly Data Report for January 14, 2005
TIME
LST
Temp Definition
°C
Dew Point Definition
°C
Rel Hum Definition
%
Precip. Amount Definition
mm

Wind Dir Definition
10's deg

Wind Spd Definition
km/h
Visibility Definition
km
Stn Press Definition
kPa
Hmdx Definition


Wind Chill Definition


Weather Definition


00:00 13.0 9.1 77   21 19 15.0 97.58      
01:00 12.8 8.9 77   20 24 15.0 97.49      
02:00 12.9 9.2 78   21 15 15.0 97.45      
03:00 12.5 9.9 84   18 24 15.0 97.30     Rain
04:00 12.1 10.7 91   19 17 15.0 97.11     Rain
05:00 9.6 8.8 95   27 22 4.0 97.32     Rain
06:00 6.7 5.7 93   28 35 11.3 97.66     Moderate Rain
07:00 1.1 -0.7 88   30 26 3.7 98.07     Heavy Rain
08:00 0.2 -1.1 91   25 13 0.8 98.27     Moderate Snow
09:00 0.2 -1.1 91   25 11 0.8 98.49     Moderate Snow
10:00 0.2 -1.1 91   26 13 1.2 98.61     Snow, Fog
11:00 0.2 -1.1 91   23 9 4.0 98.61     Snow
12:00 0.3 -1.2 90   26 9 19.3 98.61     Cloudy
13:00 0.1 -1.7 88   26 11 19.3 98.64     Snow Showers
14:00 -1.3 -5.5 73   27 19 24.1 98.74   -7 Mostly Cloudy
15:00 -3.0 -7.3 72   25 24 24.1 98.89   -10 Mostly Cloudy
16:00 -3.7 -7.0 78   26 20 24.1 99.05   -10 Mostly Cloudy
17:00 -4.9 -8.4 76   26 26 24.1 99.23   -12 Mostly Cloudy
18:00 -5.7 -9.5 75   27 24 15.0 99.39   -13  
19:00 -6.8 -11.5 69   27 30 15.0 99.53   -15  
20:00 -7.5 -10.7 78   29 22 1.0 99.64   -15 Snow
21:00 -8.7 -13.1 70   29 22 15.0 99.88   -17  
22:00 -10.0 -14.5 70   28 15 15.0 99.96   -17  
23:00 -10.7 -14.8 72   27 9 15.0 100.09   -16  

Notes on Data Quality.

Legend

  • E = Estimated
  • M = Missing
  • NA = Not Available*
  • [empty] = Indicates an unobserved value
Date modified: